Weather in Yuma

United States     32°43′31″N   114°37′24″W
temp.,
°C
wind,
m/s
gust,
m/s
humid.,
%
clouds,
%
prec.,
mm/h
press.,
hPa
HPBL,
m
18 may, tue
tue1823:00+21sw46450 0.0 101070
02:00+19ssw33580 0.0 100916
05:00+18ssw22680 0.0 101012
08:00+24sw33465 0.0 1010383
11:00+30sw44260 0.0 10091074
14:00+35wsw55160 0.0 10072158
17:00+36ssw57150 0.0 10043257
20:00+28s712280 0.0 1005196
19 may, wed
wed1923:00+24ssw511380 0.0 1007188
02:00+21ssw33480 0.0 100623
05:00+21s33540 0.0 100621
08:00+27s56400 0.0 1007487
11:00+34s78210 0.0 10061425
14:00+37ssw99120 0.0 10042349
17:00+37ssw89105 0.0 10022827
20:00+28w581469 0.0 1003115
20 may, thu
thu2023:00+24wnw481757 0.0 1004123
02:00+20wnw3526100 0.0 100481
05:00+18s2232100 0.0 100511
08:00+25sse35205 0.0 1006384
11:00+32ssw881883 0.0 10051480
14:00+36ssw771189 0.0 10032312
17:00+34ssw111213100 0.0 10012135
20:00+24w713115 0.0 1004265
21 may, fri
fri2123:00+19w7172394 0.0 1006440
02:00+14wsw23540 0.0 100772
05:00+12wsw22640 0.0 100817
08:00+19wnw33410 0.0 1010381
11:00+26w57150 0.0 10101504
14:00+30w8980 0.0 10092301
17:00+30wnw9970 0.0 10082920
20:00+20w1016200 0.0 1010466
22 may, sat
sat2223:00+15w613400 0.0 1013307
02:00+10wsw22620 0.0 101316
05:00+9nnw00710 0.0 101311
08:00+17nw11340 0.0 1014270
11:00+25w11150 0.0 10141714
14:00+29w7780 0.0 10122950
17:00+29wsw7870 0.0 10092841
20:00+21w813180 0.0 1011252